Location: Round Knob
(37.2473°N, 88.7376°W)
Time: 14:09:21
(UTC+00:00)

Okean O Rocket - Pass Details

Date: 29 October 2020
Orbit: 623 x 644 km, 98.2° (Epoch: 03 December)

Event Time Altitude Azimuth Distance (km) Brightness Sun altitude
Rises 23:48:51 0° 181° (S) 2,907 5.1 -10.3°
Reaches altitude 10° 23:51:07 10° 187° (S) 2,001 4.4 -10.8°
Maximum altitude 23:55:17 45° 260° (W) 857 2.9 -11.6°
Drops below altitude 10° 23:59:28 10° 334° (NNW) 2,004 4.4 -12.4°
Sets 00:01:45 0° 341° (NNW) 2,914 5.2 -12.9°
